Fort Myers Airport, FL

1:41 AM EDT on March 25, 2017 (GMT -0400)
Southwest Florida International

Weather History for KRSW - September, 2013

Change the Weather History Date:

Thursday, September 12, 2013

  Actual Average Record
Temperature  
Mean Temperature 80 °F -  
Max Temperature 89 °F 90 °F 94 °F (1944)
Min Temperature 73 °F 74 °F 70 °F (1950)
Cooling Degree Days 15    
Growing Degree Days 30 (Base 50)    
Moisture  
Dew Point 72 °F    
Average Humidity 84    
Maximum Humidity 96    
Minimum Humidity 57    
Precipitation  
Precipitation 0.01 in - - ()
Sea Level Pressure  
Sea Level Pressure 29.96 in    
Wind  
Wind Speed 5 mph (ENE)    
Max Wind Speed 18 mph    
Max Gust Speed 25 mph    
Visibility 10 miles    
Events Rain    
Averages and records for this station are not official NWS values.
T = Trace of Precipitation, MM = Missing Value Source: NWS Daily Summary

Daily Weather History Graph

Daily Weather History Graph

Search for Another Location

Airport or City:

Trip Planner

Search our weather history database for the weather conditions in past years. The results will help you decide how hot, cold, wet, or windy it might be!

Date:

Astronomy

Sep. 12, 2013 Rise Set
Actual Time 7:11 AM EDT 7:34 PM EDT
Civil Twilight 6:48 AM EDT 7:57 PM EDT
Nautical Twilight 6:21 AM EDT 8:24 PM EDT
Astronomical Twilight 5:53 AM EDT 8:52 PM EDT
Moon 2:01 PM EDT (9/12) 12:06 AM EDT (9/12)
Length of Visible Light 13h 09m
Length of Day
12h 22m
Waxing Crescent, 50% of the Moon is Illuminated
Sep 12
Waxing Crescent
Sep 12
First Quarter
Sep 19
Full
Sep 26
Last Quarter
Oct 4
New

Hourly Weather History & Observations

Time (EDT) Temp. Heat Index Dew Point Humidity Pressure Visibility Wind Dir Wind Speed Gust Speed Precip Events Conditions
12:53 AM 75.9 °F - 73.9 °F 94% 30.01 in 10.0 mi ENE 4.6 mph - N/A   Partly Cloudy
1:53 AM 75.9 °F - 73.0 °F 91% 29.98 in 10.0 mi East 5.8 mph - N/A   Clear
2:53 AM 75.9 °F - 73.0 °F 91% 29.99 in 10.0 mi Calm Calm - N/A   Partly Cloudy
3:53 AM 75.9 °F - 73.9 °F 94% 29.98 in 6.0 mi Calm Calm - 0.01 in Rain Light Rain
4:53 AM 75.0 °F - 73.9 °F 96% 29.96 in 10.0 mi East 4.6 mph - 0.00 in   Clear
5:53 AM 75.0 °F - 73.0 °F 94% 29.97 in 10.0 mi NE 4.6 mph - N/A   Partly Cloudy
6:53 AM 75.0 °F - 73.9 °F 96% 29.98 in 10.0 mi NE 4.6 mph - 0.00 in Rain Light Rain
7:53 AM 75.0 °F - 73.9 °F 96% 29.99 in 10.0 mi ENE 5.8 mph - 0.00 in   Mostly Cloudy
8:53 AM 75.9 °F - 73.9 °F 94% 30.00 in 10.0 mi ENE 4.6 mph - N/A   Clear
9:53 AM 78.1 °F - 73.9 °F 87% 30.01 in 10.0 mi ESE 3.5 mph - N/A   Clear
10:53 AM 80.1 °F 84.5 °F 73.9 °F 81% 30.01 in 10.0 mi Calm Calm - N/A   Scattered Clouds
11:53 AM 82.0 °F 87.9 °F 73.9 °F 76% 30.00 in 10.0 mi East 5.8 mph - 0.00 in   Mostly Cloudy
12:53 PM 84.9 °F 90.7 °F 72.0 °F 65% 29.98 in 10.0 mi Calm Calm - N/A   Scattered Clouds
1:53 PM 87.1 °F 92.0 °F 70.0 °F 57% 29.96 in 10.0 mi South 6.9 mph - N/A   Clear
2:53 PM 87.1 °F 94.5 °F 73.0 °F 63% 29.93 in 10.0 mi South 6.9 mph - N/A   Partly Cloudy
3:53 PM 86.0 °F 93.0 °F 73.0 °F 65% 29.90 in 10.0 mi SW 8.1 mph - N/A   Mostly Cloudy
4:53 PM 82.9 °F 87.0 °F 70.0 °F 65% 29.89 in 10.0 mi SSE 6.9 mph - N/A   Overcast
5:53 PM 84.9 °F 90.1 °F 71.1 °F 63% 29.89 in 10.0 mi SE 4.6 mph - N/A   Mostly Cloudy
6:28 PM 78.8 °F - 71.6 °F 78% 29.92 in 10.0 mi NE 18.4 mph 25.3 mph N/A   Mostly Cloudy
6:53 PM 75.0 °F - 71.1 °F 87% 29.94 in 10.0 mi NNE 10.4 mph 19.6 mph N/A   Scattered Clouds
7:00 PM 75.2 °F - 71.6 °F 89% 29.95 in 10.0 mi NNE 10.4 mph 16.1 mph N/A   Mostly Cloudy
7:53 PM 75.0 °F - 72.0 °F 90% 29.94 in 10.0 mi East 8.1 mph - N/A   Mostly Cloudy
8:44 PM 75.2 °F - 71.6 °F 89% 29.96 in 10.0 mi NE 8.1 mph - N/A   Mostly Cloudy
8:53 PM 75.0 °F - 71.1 °F 87% 29.95 in 10.0 mi NE 8.1 mph - N/A   Mostly Cloudy
9:00 PM 75.2 °F - 71.6 °F 89% 29.96 in 10.0 mi North 5.8 mph - N/A   Mostly Cloudy
9:17 PM 75.2 °F - 71.6 °F 89% 29.95 in 10.0 mi NNE 4.6 mph - N/A   Mostly Cloudy
9:53 PM 75.0 °F - 71.1 °F 87% 29.93 in 10.0 mi Calm Calm - 0.00 in   Partly Cloudy
10:53 PM 73.9 °F - 71.1 °F 91% 29.93 in 10.0 mi ENE 4.6 mph - N/A   Clear
11:53 PM 73.9 °F - 72.0 °F 93% 29.91 in 10.0 mi ENE 6.9 mph - N/A   Clear